Starlink 33911

operational
NORAD ID: 63777 Int'l Des: 2025-091 Owner: SPXS Country: US Constellation: starlink
LEOCIRCULAR

Über Starlink 33911

Beschreibung wird geladen...

Live-Position

3D-Globus wird geladen...

Nächste Überflüge

Höhenverlauf

Altitude vs Time

uPlot chart will show altitude changes over time

Zweizeiliger Elementsatz

1 63777U 25091C 25304.61192567 .00038879 00000-0 14149-2 0 9994
2 63777 43.0001 54.3365 0000602 300.4545 59.6247 15.27580491 29247
Epoch: 31. Okt. 2025 • Age: 20 hours

Aktueller Status

Höhe 483.1 km
Geschwindigkeit 7.63 km/s
Subsatellitenpunkt -4.88°S, 162.5°W
Startdatum 2. Mai 2025
Alter 0.5 years
Typ internet

Technische Details

Klassifizierung Payload
Masse 575.00 kg
Trockenmasse 530.00 kg
Gesamtmasse 575.00 kg
Länge 0.30 m
Durchmesser 4.10 m
Spannweite 29.00 m
Form Box + pan
Hersteller SPXS
Bus-Typ Starlink V2MO
Phasenstatus In Orbit
Besitzer/Staat SPXS/US

Große Konstellationen

Loading constellations...